Flight Track Log - Related Links

Times and Time Zones

All times are in EDT time to prevent confusion due to time zone crossing. See the UAL6148 flight status page for this flight to view local times or setup timezone preferences in your user account.

Time Position Orientation Groundspeed Altitude Reporting Facility
EDT Latitude Longitude Course Direction KTS MPH feet Rate Location/Type
Mon 09:52:22 PM 40.8603 -96.7686 304° West 157 181 2,100  Level Minneapolis Center
Mon 09:52:58 PM 40.8747 -96.7972 304° West 180 207 3,800 2,621 Climbing Minneapolis Center
Mon 09:53:49 PM 40.8861 -96.8561 284° West 211 243 5,900 2,839 Climbing Minneapolis Center
Mon 09:54:50 PM 40.8719 -96.9372 257° West 225 259 9,100 2,951 Climbing Minneapolis Center
Mon 09:55:51 PM 40.8553 -97.0275 256° West 246 283 11,900 1,672 Climbing Minneapolis Center
Mon 09:56:52 PM 40.8361 -97.1436 258° West 312 359 12,500 1,561 Climbing Minneapolis Center
Mon 09:57:54 PM 40.8147 -97.2675 257° West 342 394 15,100 2,244 Climbing Minneapolis Center
Mon 09:58:55 PM 40.7925 -97.3942 257° West 337 388 17,100 1,426 Climbing Minneapolis Center
Mon 09:59:56 PM 40.7700 -97.5214 257° West 348 400 18,000 1,770 Climbing Minneapolis Center
Mon 10:00:57 PM 40.7478 -97.6486 257° West 355 409 20,700 2,341 Climbing Minneapolis Center
Mon 10:01:59 PM 40.7214 -97.7911 256° West 338 389 22,800 1,756 Climbing Minneapolis Center
Mon 10:03:00 PM 40.7003 -97.9117 257° West 336 387 24,300 1,230 Climbing Minneapolis Center
Mon 10:04:01 PM 40.7047 -98.0389 273° West 347 399 25,300 1,033 Climbing Minneapolis Center
Mon 10:05:02 PM 40.7089 -98.1672 272° West 349 402 26,400 1,033 Climbing Minneapolis Center
Mon 10:06:03 PM 40.7142 -98.2958 273° West 350 403 27,400 984 Climbing Minneapolis Center
Mon 10:07:04 PM 40.7186 -98.4203 273° West 344 396 28,400 1,033 Climbing Minneapolis Center
Mon 10:08:05 PM 40.7244 -98.5442 274° West 338 389 29,500 1,024 Climbing Minneapolis Center
Mon 10:09:07 PM 40.7292 -98.6686 273° West 337 388 30,500 976 Climbing Minneapolis Center
Mon 10:10:08 PM 40.7342 -98.7939 273° West 339 390 31,500 1,033 Climbing Minneapolis Center
Mon 10:11:09 PM 40.7375 -98.9208 272° West 342 394 32,600 1,082 Climbing Minneapolis Center
Mon 10:12:10 PM 40.7431 -99.0597 273° West 348 400 33,700 689 Climbing Minneapolis Center
Mon 10:13:11 PM 40.7469 -99.1792 272° West 350 403 34,000 148 Climbing Minneapolis Center
Mon 10:14:12 PM 40.7517 -99.3125 273° West 358 412 34,000  Level Minneapolis Center
Mon 10:15:14 PM 40.7564 -99.4447 273° West 360 414 34,000  Level Minneapolis Center
Mon 10:16:15 PM 40.7600 -99.5767 272° West 359 413 34,000  Level Minneapolis Center
Mon 10:17:25 PM 40.7647 -99.7319 272° West 355 409 34,000  Level Denver Center
Mon 10:18:26 PM 40.7683 -99.8592 272° West 349 402 34,000  Level Denver Center
Mon 10:19:27 PM 40.7717 -100.0067 272° West 357 411 34,000  Level Denver Center
Mon 10:20:29 PM 40.7750 -100.1325 272° West 359 413 34,000  Level Denver Center
Mon 10:21:30 PM 40.7783 -100.2747 272° West 350 403 34,000  Level Denver Center
Mon 10:22:32 PM 40.7814 -100.4006 272° West 356 410 34,000  Level Denver Center
Mon 10:23:33 PM 40.7842 -100.5258 272° West 358 412 34,000  Level Denver Center
Mon 10:24:35 PM 40.7850 -100.6656 270° West 341 392 34,000  Level Denver Center
Mon 10:25:36 PM 40.7644 -100.7872 257° West 343 395 34,000  Level Denver Center
Mon 10:26:37 PM 40.7469 -100.8992 258° West 326 375 34,000  Level Denver Center
Mon 10:27:39 PM 40.7253 -101.0336 258° West 333 383 34,000  Level Denver Center
Mon 10:28:40 PM 40.7094 -101.1272 257° West 330 380 34,000  Level Denver Center
Mon 10:29:42 PM 40.6867 -101.2558 257° West 323 372 34,000  Level Denver Center
Mon 10:30:43 PM 40.6653 -101.3819 257° West 317 365 34,000  Level Denver Center
Mon 10:31:45 PM 40.6475 -101.4814 257° West 294 338 34,000  Level Denver Center
Mon 10:32:59 PM 40.6286 -101.5897 257° West 239 275 34,000  Level Denver Center
Mon 10:34:00 PM 40.6153 -101.6672 257° West 230 265 34,000  Level Denver Center
Mon 10:35:02 PM 40.5989 -101.7572 257° West 228 262 34,000  Level Denver Center
Mon 10:36:03 PM 40.5842 -101.8394 257° West 238 274 34,000  Level Denver Center
Mon 10:37:05 PM 40.5672 -101.9361 257° West 241 277 34,000 -244 Level Denver Center
Mon 10:38:06 PM 40.5522 -102.0161 256° West 238 274 33,500 -1,180 Descending Denver Center
Mon 10:39:07 PM 40.5375 -102.0994 257° West 243 280 31,600 -1,756 Descending Denver Center
Mon 10:40:09 PM 40.5211 -102.1914 257° West 234 269 29,900 -1,317 Descending Denver Center
Mon 10:41:10 PM 40.5075 -102.2619 256° West 215 247 28,900 -933 Descending Denver Center
Mon 10:42:24 PM 40.4925 -102.3425 256° West 205 236 27,800 -971 Descending Denver Center
Mon 10:43:26 PM 40.4764 -102.4297 256° West 218 251 26,700 -1,122 Descending Denver Center
Mon 10:44:27 PM 40.4597 -102.5144 256° West 216 249 25,500 -1,033 Descending Denver Center
Mon 10:45:28 PM 40.4458 -102.5892 256° West 220 253 24,600 -976 Descending Denver Center
Mon 10:46:30 PM 40.4294 -102.6822 257° West 237 273 23,500 -1,073 Descending Denver Center
Mon 10:47:31 PM 40.4147 -102.7600 256° West 221 254 22,400 -732 Descending Denver Center
Mon 10:48:33 PM 40.4008 -102.8317 256° West 204 235 22,000 -195 Descending Denver Center
Mon 10:49:34 PM 40.3853 -102.9069 255° West 211 243 22,000  Level Denver Center
Mon 10:50:35 PM 40.3706 -102.9783 255° West 205 236 22,000  Level Denver Center
Mon 10:51:37 PM 40.3575 -103.0561 258° West 214 246 22,000  Level Denver Center
Mon 10:52:38 PM 40.3411 -103.1350 255° West 223 257 22,000  Level Denver Center
Mon 10:53:39 PM 40.3239 -103.2308 257° West 266 306 22,000  Level Denver Center
Mon 10:54:41 PM 40.3014 -103.3406 255° West 308 354 22,000 49 Level Denver Center
Mon 10:55:42 PM 40.2806 -103.4522 256° West 312 359 22,100  Climbing Denver Center
Mon 10:56:44 PM 40.2594 -103.5572 255° West 297 342 22,000 -49 Descending Denver Center
Mon 10:57:45 PM 40.2394 -103.6564 255° West 283 326 22,000  Level Denver Center
Mon 10:58:46 PM 40.2181 -103.7667 256° West 287 330 22,000 -49 Level Denver Center
Mon 10:59:48 PM 40.1944 -103.8700 253° West 277 319 21,900 -927 Descending Denver Center
Mon 11:00:49 PM 40.1539 -103.9514 237° Southwest 269 310 20,100 -1,388 Descending Denver Center
Mon 11:02:02 PM 40.1161 -104.0347 239° Southwest 269 310 18,800 -1,200 Descending Denver Center
Mon 11:03:04 PM 40.0789 -104.1158 239° Southwest 261 300 17,400 -1,317 Descending Denver Center
Mon 11:04:05 PM 40.0372 -104.2069 239° Southwest 238 274 16,100 -976 Descending Denver Center
Mon 11:05:07 PM 40.0033 -104.2783 238° Southwest 217 250 15,400 -683 Descending Denver Center
Mon 11:06:08 PM 39.9708 -104.3478 239° Southwest 225 259 14,700 -780 Descending Denver Center
Mon 11:07:10 PM 39.9383 -104.4181 239° Southwest 227 261 13,800 -1,024 Descending Denver Center
Mon 11:08:11 PM 39.8958 -104.4919 233° Southwest 241 277 12,600 -1,220 Descending Denver Center
Mon 11:09:13 PM 39.8297 -104.5011 186° South 241 277 11,300 -780 Descending Denver Center
Mon 11:10:14 PM 39.7625 -104.5031 181° South 239 275 11,000 -146 Descending Denver Center
Mon 11:11:16 PM 39.6936 -104.5036 180° South 244 281 11,000 -98 Level Denver Center
Mon 11:12:17 PM 39.6197 -104.5047 181° South 247 284 10,800 -590 Descending Denver Center
Mon 11:13:18 PM 39.5656 -104.5364 204° Southwest 235 270 9,800 -1,073 Descending Denver Center
Mon 11:14:20 PM 39.5769 -104.6164 280° West 226 260 8,600 -878 Descending Denver Center
Mon 11:15:21 PM 39.6311 -104.6436 339° North 185 213 8,000 -293 Descending Denver Center
Mon 11:16:23 PM 39.6878 -104.6431 360° North 203 234 8,000 -390 Level Denver Center
Mon 11:17:24 PM 39.7422 -104.6431 360° North 193 222 7,200 -836 Descending Denver Center
Mon 11:18:25 PM 39.7881 -104.6428 360° North 156 180 6,300 -829 Descending Denver Center
Mon 11:19:27 PM 39.8250 -104.6417 North 135 155 5,500 -774 Descending Denver Center
Mon 11:21:00 PM 39.8500 -104.6667 North  Level FlightAware Approximate
Mon 11:28:00 PM 39.8617 -104.6732 North  Level Estimated
Mon 11:29:00 PM 39.8617 -104.6732 North  Level Estimated
Mon 11:30:00 PM 39.8617 -104.6732 North  Level Estimated

Login

Don't have an account? Register now (free) for customized features, flight alerts, and more!